Station History

Weather Underground - logo

Station Historical Data
Daily Summary for September 15, 2017 Units:  English    Metric   Both
« Previous Day
Next Day »
Daily Weekly Monthly Yearly Custom
  High: Low: Average:
Temperature: TemperatureF °F 57.4 °F 71.1 °F
Dew Point: DewpointF °F 53.6 °F 55.8 °F
Humidity: Humidity % 39 % 61 %
Wind Speed: WindSpeedMPH mph 0.0 mph 1 mph
Wind Gust: WindSpeedGustMPH mph - -
Wind:- - SW
Pressure: PressureIn in 29.78 in -
Precipitation: 0.00 in    
Historical Graphs
 
 
Tabular Data for September 15, 2017
Time Temperature Dew Point Pressure Wind Wind Speed Wind Gust Humidity Rainfall Rate (Hourly)
TemperatureF °F DewpointF °F PressureIn in Calm     Humidity % HourlyPrecipIn in
00:01 70.3 °F 57.5 °F 29.82 in NW 2.3 mph 2.3 mph 64 % 0.00 in
00:06 70.1 °F 57.4 °F 29.82 in NNW 2.3 mph 2.3 mph 64 % 0.00 in
00:11 69.9 °F 57.2 °F 29.82 in WNW 1.2 mph 1.2 mph 64 % 0.00 in
00:16 69.7 °F 57.4 °F 29.82 in Calm     65 % 0.00 in
00:21 69.4 °F 58.0 °F 29.82 in Calm     67 % 0.00 in
00:26 69.1 °F 57.3 °F 29.82 in Calm     66 % 0.00 in
00:31 68.8 °F 57.0 °F 29.82 in NW 1.2 mph 1.2 mph 66 % 0.00 in
00:36 68.6 °F 56.8 °F 29.82 in NNW 1.2 mph 1.2 mph 66 % 0.00 in
00:41 68.5 °F 56.7 °F 29.82 in Calm     66 % 0.00 in
00:46 68.4 °F 56.2 °F 29.82 in WSW 1.2 mph 1.2 mph 65 % 0.00 in
00:51 68.3 °F 56.1 °F 29.82 in Calm     65 % 0.00 in
00:56 68.0 °F 55.8 °F 29.82 in WNW 1.2 mph 1.2 mph 65 % 0.00 in
01:01 67.7 °F 55.9 °F 29.82 in Calm     66 % 0.00 in
01:06 67.5 °F 55.3 °F 29.82 in Calm     65 % 0.00 in
01:11 67.3 °F 55.5 °F 29.82 in Calm     66 % 0.00 in
01:16 67.2 °F 55.5 °F 29.82 in Calm     66 % 0.00 in
01:21 67.1 °F 55.4 °F 29.82 in Calm     66 % 0.00 in
01:26 66.9 °F 55.2 °F 29.82 in WNW 1.2 mph 1.2 mph 66 % 0.00 in
01:31 66.7 °F 55.4 °F 29.82 in Calm     67 % 0.00 in
01:36 66.6 °F 55.3 °F 29.82 in Calm     67 % 0.00 in
01:41 66.3 °F 54.6 °F 29.82 in Calm     66 % 0.00 in
01:46 66.2 °F 54.9 °F 29.82 in WNW 1.2 mph   67 % 0.00 in
01:51 66.1 °F 54.8 °F 29.82 in WNW 1.2 mph   67 % 0.00 in
01:56 66.0 °F 54.7 °F 29.82 in West 1.2 mph   67 % 0.00 in
02:01 65.8 °F 54.5 °F 29.83 in Calm     67 % 0.00 in
02:06 65.6 °F 54.8 °F 29.83 in Calm     68 % 0.00 in
02:11 65.4 °F 54.6 °F 29.83 in Calm     68 % 0.00 in
02:16 65.2 °F 54.4 °F 29.83 in Calm     68 % 0.00 in
02:21 65.0 °F 54.6 °F 29.83 in Calm     69 % 0.00 in
02:26 64.9 °F 54.9 °F 29.83 in Calm     70 % 0.00 in
02:31 64.7 °F 54.3 °F 29.83 in Calm     69 % 0.00 in
02:37 64.6 °F 54.2 °F 29.83 in West 1.2 mph   69 % 0.00 in
02:42 64.7 °F 54.7 °F 29.83 in Calm     70 % 0.00 in
02:47 64.5 °F 54.1 °F 29.83 in Calm     69 % 0.00 in
02:52 64.4 °F 54.0 °F 29.83 in Calm     69 % 0.00 in
02:57 64.3 °F 53.9 °F 29.83 in Calm     69 % 0.00 in
03:02 64.1 °F 54.1 °F 29.83 in Calm     70 % 0.00 in
03:07 63.9 °F 53.9 °F 29.83 in Calm     70 % 0.00 in
03:12 63.6 °F 54.4 °F 29.83 in Calm     72 % 0.00 in
03:17 63.3 °F 54.5 °F 29.83 in Calm     73 % 0.00 in
03:22 63.1 °F 54.7 °F 29.83 in Calm     74 % 0.00 in
03:27 62.9 °F 54.5 °F 29.83 in Calm     74 % 0.00 in
03:32 62.8 °F 54.8 °F 29.83 in Calm     75 % 0.00 in
03:37 62.6 °F 54.6 °F 29.83 in Calm     75 % 0.00 in
03:42 62.3 °F 54.6 °F 29.83 in Calm     76 % 0.00 in
03:47 62.0 °F 55.1 °F 29.83 in Calm     78 % 0.00 in
03:52 61.6 °F 54.7 °F 29.83 in Calm     78 % 0.00 in
03:57 61.4 °F 54.8 °F 29.83 in Calm     79 % 0.00 in
04:02 61.3 °F 55.1 °F 29.83 in Calm     80 % 0.00 in
04:07 61.2 °F 55.0 °F 29.83 in Calm     80 % 0.00 in
04:12 61.0 °F 54.8 °F 29.84 in Calm     80 % 0.00 in
04:17 60.9 °F 54.7 °F 29.84 in Calm     80 % 0.00 in
04:22 60.8 °F 54.6 °F 29.84 in Calm     80 % 0.00 in
04:27 60.6 °F 54.7 °F 29.84 in Calm     81 % 0.00 in
04:32 60.5 °F 54.3 °F 29.84 in Calm     80 % 0.00 in
04:37 60.4 °F 54.5 °F 29.84 in Calm     81 % 0.00 in
04:42 60.4 °F 54.5 °F 29.84 in Calm     81 % 0.00 in
04:47 60.3 °F 54.1 °F 29.84 in Calm     80 % 0.00 in
04:52 60.2 °F 54.3 °F 29.84 in Calm     81 % 0.00 in
04:57 60.0 °F 54.5 °F 29.84 in Calm     82 % 0.00 in
05:02 59.8 °F 54.3 °F 29.84 in Calm     82 % 0.00 in
05:07 59.7 °F 54.2 °F 29.84 in Calm     82 % 0.00 in
05:12 59.5 °F 54.0 °F 29.84 in Calm     82 % 0.00 in
05:17 59.4 °F 54.2 °F 29.85 in Calm     83 % 0.00 in
05:22 59.2 °F 54.0 °F 29.85 in Calm     83 % 0.00 in
05:27 59.2 °F 54.7 °F 29.85 in Calm     85 % 0.00 in
05:32 59.0 °F 54.2 °F 29.85 in Calm     84 % 0.00 in
05:37 58.9 °F 54.1 °F 29.85 in Calm     84 % 0.00 in
05:42 58.8 °F 54.0 °F 29.84 in Calm     84 % 0.00 in
05:47 58.6 °F 54.1 °F 29.85 in Calm     85 % 0.00 in
05:52 58.5 °F 54.3 °F 29.85 in Calm     86 % 0.00 in
05:57 58.4 °F 54.2 °F 29.85 in Calm     86 % 0.00 in
06:02 58.2 °F 54.0 °F 29.85 in Calm     86 % 0.00 in
06:07 58.1 °F 53.9 °F 29.85 in Calm     86 % 0.00 in
06:12 58.0 °F 54.2 °F 29.85 in Calm     87 % 0.00 in
06:17 57.9 °F 54.1 °F 29.86 in Calm     87 % 0.00 in
06:22 57.8 °F 54.0 °F 29.86 in Calm     87 % 0.00 in
06:27 57.8 °F 54.3 °F 29.86 in Calm   0.1 mph 88 % 0.00 in
06:32 57.7 °F 54.2 °F 29.86 in West 1.2 mph   88 % 0.00 in
06:37 57.7 °F 54.2 °F 29.86 in Calm     88 % 0.00 in
06:42 57.6 °F 53.8 °F 29.86 in West 1.2 mph   87 % 0.00 in
06:48 57.6 °F 54.1 °F 29.87 in Calm     88 % 0.00 in
06:53 57.6 °F 53.8 °F 29.87 in Calm     87 % 0.00 in
06:58 57.5 °F 53.7 °F 29.87 in Calm     87 % 0.00 in
07:03 57.5 °F 53.7 °F 29.87 in Calm     87 % 0.00 in
07:08 57.5 °F 53.7 °F 29.88 in Calm     87 % 0.00 in
07:13 57.4 °F 53.6 °F 29.88 in Calm     87 % 0.00 in
07:18 57.4 °F 53.6 °F 29.88 in Calm     87 % 0.00 in
07:23 57.5 °F 53.7 °F 29.89 in Calm     87 % 0.00 in
07:28 57.6 °F 53.8 °F 29.89 in West 1.2 mph 1.2 mph 87 % 0.00 in
07:33 57.8 °F 54.0 °F 29.89 in Calm     87 % 0.00 in
07:38 58.2 °F 54.3 °F 29.89 in Calm     87 % 0.00 in
07:43 58.6 °F 54.4 °F 29.89 in Calm     86 % 0.00 in
07:48 58.9 °F 54.7 °F 29.90 in West 1.2 mph 1.2 mph 86 % 0.00 in
07:53 59.3 °F 54.5 °F 29.90 in Calm     84 % 0.00 in
07:58 59.9 °F 54.7 °F 29.90 in North 1.2 mph 1.2 mph 83 % 0.00 in
08:03 60.8 °F 54.6 °F 29.90 in SSE 1.2 mph   80 % 0.00 in
08:08 61.6 °F 54.7 °F 29.90 in SE 2.3 mph 2.3 mph 78 % 0.00 in
08:13 62.4 °F 54.7 °F 29.90 in ENE 1.2 mph 1.2 mph 76 % 0.00 in
08:18 63.0 °F 54.6 °F 29.90 in NNW 1.2 mph   74 % 0.00 in
08:23 63.8 °F 54.6 °F 29.90 in South 1.2 mph   72 % 0.00 in
08:28 64.7 °F 54.7 °F 29.90 in SE 1.2 mph 1.2 mph 70 % 0.00 in
08:33 65.2 °F 54.8 °F 29.90 in ESE 1.2 mph   69 % 0.00 in
08:38 65.6 °F 54.8 °F 29.91 in NE 3.5 mph 3.5 mph 68 % 0.00 in
08:43 65.9 °F 55.0 °F 29.91 in South 2.3 mph 2.3 mph 68 % 0.00 in
08:48 66.7 °F 55.4 °F 29.91 in SSE 2.0 mph 2.0 mph 67 % 0.00 in
08:53 67.3 °F 55.5 °F 29.91 in SE 1.2 mph   66 % 0.00 in
08:58 67.5 °F 54.5 °F 29.91 in East 3.0 mph 3.0 mph 63 % 0.00 in
09:03 68.0 °F 54.9 °F 29.91 in Calm   0.7 mph 63 % 0.00 in
09:08 68.4 °F 54.4 °F 29.91 in SSE 2.3 mph 2.3 mph 61 % 0.00 in
09:13 68.6 °F 54.6 °F 29.91 in ESE 3.5 mph 3.5 mph 61 % 0.00 in
09:19 68.8 °F 54.8 °F 29.91 in ENE 2.3 mph 2.3 mph 61 % 0.00 in
09:24 69.1 °F 55.1 °F 29.91 in ENE 2.0 mph 2.0 mph 61 % 0.00 in
09:29 69.4 °F 55.4 °F 29.91 in SSW 2.3 mph 2.3 mph 61 % 0.00 in
09:34 69.8 °F 54.8 °F 29.91 in East 3.5 mph 3.5 mph 59 % 0.00 in
09:39 69.7 °F 55.2 °F 29.91 in ESE 1.2 mph 1.2 mph 60 % 0.00 in
09:44 70.2 °F 54.7 °F 29.91 in ESE 2.3 mph 2.3 mph 58 % 0.00 in
09:49 70.7 °F 56.1 °F 29.91 in South 1.2 mph 1.2 mph 60 % 0.00 in
09:54 71.0 °F 55.5 °F 29.91 in ESE 2.3 mph 2.3 mph 58 % 0.00 in
09:59 71.3 °F 55.8 °F 29.91 in SE 3.5 mph 3.5 mph 58 % 0.00 in
10:04 71.6 °F 55.6 °F 29.91 in SSE 2.3 mph 2.3 mph 57 % 0.00 in
10:09 71.8 °F 55.7 °F 29.91 in ENE 2.3 mph 2.3 mph 57 % 0.00 in
10:14 72.3 °F 55.7 °F 29.91 in ENE 4.0 mph 4.0 mph 56 % 0.00 in
10:19 72.5 °F 55.9 °F 29.91 in ESE 4.0 mph 4.0 mph 56 % 0.00 in
10:24 72.8 °F 56.2 °F 29.91 in SE 2.3 mph 2.3 mph 56 % 0.00 in
10:29 73.1 °F 56.5 °F 29.91 in SSW 2.3 mph 2.3 mph 56 % 0.00 in
10:34 73.5 °F 56.8 °F 29.91 in ESE 3.5 mph 3.5 mph 56 % 0.00 in
10:39 74.0 °F 56.3 °F 29.90 in ESE 2.3 mph 2.3 mph 54 % 0.00 in
10:44 74.2 °F 55.4 °F 29.90 in WNW 1.2 mph 1.2 mph 52 % 0.00 in
10:49 74.0 °F 55.8 °F 29.90 in SSE 2.3 mph 2.3 mph 53 % 0.00 in
10:54 74.3 °F 55.5 °F 29.90 in ESE 1.2 mph 1.2 mph 52 % 0.00 in
10:59 75.0 °F 57.2 °F 29.90 in SSE 2.3 mph 2.3 mph 54 % 0.00 in
11:04 75.7 °F 56.8 °F 29.90 in NE 1.2 mph   52 % 0.00 in
11:09 75.6 °F 56.7 °F 29.90 in ENE 1.2 mph 1.2 mph 52 % 0.00 in
11:14 75.6 °F 56.2 °F 29.90 in WNW 3.5 mph   51 % 0.00 in
11:19 75.6 °F 56.2 °F 29.90 in ESE 2.3 mph 2.3 mph 51 % 0.00 in
11:24 76.0 °F 57.1 °F 29.90 in WNW 2.3 mph 2.3 mph 52 % 0.00 in
11:29 76.5 °F 56.5 °F 29.89 in ESE 2.3 mph 2.3 mph 50 % 0.00 in
11:34 76.5 °F 57.0 °F 29.89 in NE 2.3 mph 2.3 mph 51 % 0.00 in
11:39 76.5 °F 57.6 °F 29.89 in Calm   0.2 mph 52 % 0.00 in
11:44 77.1 °F 56.5 °F 29.89 in ESE 2.3 mph 2.3 mph 49 % 0.00 in
11:49 77.4 °F 57.9 °F 29.89 in WNW 3.5 mph 3.5 mph 51 % 0.00 in
11:54 77.3 °F 57.2 °F 29.88 in WSW 1.2 mph 1.2 mph 50 % 0.00 in
11:59 77.8 °F 56.5 °F 29.88 in WNW 2.3 mph 2.3 mph 48 % 0.00 in
12:04 77.6 °F 56.4 °F 29.88 in WNW 3.5 mph 3.5 mph 48 % 0.00 in
12:09 77.8 °F 56.5 °F 29.88 in West 2.3 mph 2.3 mph 48 % 0.00 in
12:14 77.8 °F 57.1 °F 29.88 in NW 3.5 mph 3.5 mph 49 % 0.00 in
12:19 77.9 °F 56.6 °F 29.88 in NW 3.5 mph 3.5 mph 48 % 0.00 in
12:24 78.3 °F 58.7 °F 29.88 in Calm     51 % 0.00 in
12:29 78.9 °F 57.0 °F 29.88 in NNW 2.3 mph 2.3 mph 47 % 0.00 in
12:34 79.0 °F 57.0 °F 29.87 in NNE 2.3 mph 2.3 mph 47 % 0.00 in
12:39 78.5 °F 56.6 °F 29.87 in NE 3.5 mph 3.5 mph 47 % 0.00 in
12:44 79.0 °F 57.0 °F 29.87 in ENE 1.2 mph 1.2 mph 47 % 0.00 in
12:49 79.9 °F 56.7 °F 29.86 in SE 3.5 mph 3.5 mph 45 % 0.00 in
12:54 80.5 °F 58.4 °F 29.86 in NE 2.3 mph 2.3 mph 47 % 0.00 in
12:59 81.3 °F 57.3 °F 29.86 in NE 2.3 mph 2.3 mph 44 % 0.00 in
13:04 81.2 °F 56.6 °F 29.86 in SSW 3.5 mph 3.5 mph 43 % 0.00 in
13:09 81.5 °F 57.5 °F 29.86 in NW 1.2 mph 1.2 mph 44 % 0.00 in
13:15 81.1 °F 56.5 °F 29.85 in WNW 1.2 mph 1.2 mph 43 % 0.00 in
13:20 81.5 °F 57.5 °F 29.85 in NW 2.3 mph 2.3 mph 44 % 0.00 in
13:25 82.0 °F 57.3 °F 29.85 in NW 2.3 mph 2.3 mph 43 % 0.00 in
13:30 82.4 °F 57.7 °F 29.84 in SE 3.5 mph 3.5 mph 43 % 0.00 in
13:35 82.3 °F 56.9 °F 29.84 in NW 2.3 mph 2.3 mph 42 % 0.00 in
13:40 82.4 °F 57.7 °F 29.84 in West 2.3 mph 2.3 mph 43 % 0.00 in
13:45 82.2 °F 56.2 °F 29.84 in WNW 3.5 mph 3.5 mph 41 % 0.00 in
13:50 81.6 °F 56.3 °F 29.84 in West 1.2 mph 1.2 mph 42 % 0.00 in
13:55 82.2 °F 56.8 °F 29.84 in Calm     42 % 0.00 in
14:00 82.7 °F 56.6 °F 29.83 in WSW 1.2 mph 1.2 mph 41 % 0.00 in
14:05 83.3 °F 58.5 °F 29.83 in NW 2.3 mph 2.3 mph 43 % 0.00 in
14:10 84.2 °F 56.6 °F 29.83 in WNW 3.5 mph 3.5 mph 39 % 0.00 in
14:15 84.3 °F 58.0 °F 29.83 in SE 3.5 mph 3.5 mph 41 % 0.00 in
14:20 84.6 °F 56.9 °F 29.83 in NNW 2.3 mph 2.3 mph 39 % 0.00 in
14:25 84.4 °F 56.7 °F 29.83 in North 2.3 mph 2.3 mph 39 % 0.00 in
14:30 84.0 °F 57.1 °F 29.83 in SE 1.2 mph 1.2 mph 40 % 0.00 in
14:35 84.1 °F 57.9 °F 29.82 in North 1.2 mph 1.2 mph 41 % 0.00 in
14:40 84.4 °F 57.4 °F 29.82 in NNW 3.5 mph 3.5 mph 40 % 0.00 in
14:45 84.1 °F 57.2 °F 29.82 in SW 2.3 mph 2.3 mph 40 % 0.00 in
14:50 83.7 °F 57.5 °F 29.82 in SSE 2.3 mph 2.3 mph 41 % 0.00 in
14:55 83.6 °F 56.7 °F 29.82 in NNW 1.0 mph 1.0 mph 40 % 0.00 in
15:00 84.0 °F 56.4 °F 29.81 in NW 1.2 mph   39 % 0.00 in
15:05 84.3 °F 56.6 °F 29.81 in NW 3.5 mph 3.5 mph 39 % 0.00 in
15:10 83.5 °F 56.6 °F 29.81 in NW 1.2 mph 1.2 mph 40 % 0.00 in
15:15 83.0 °F 56.2 °F 29.81 in NW 1.2 mph 1.2 mph 40 % 0.00 in
15:20 83.6 °F 57.4 °F 29.80 in WNW 2.0 mph 2.0 mph 41 % 0.00 in
15:25 84.2 °F 57.9 °F 29.80 in NNW 2.3 mph 2.3 mph 41 % 0.00 in
15:30 83.7 °F 57.5 °F 29.80 in NNW 3.5 mph 3.5 mph 41 % 0.00 in
15:35 83.7 °F 56.8 °F 29.80 in NNE 2.3 mph 2.3 mph 40 % 0.00 in
15:40 83.6 °F 57.4 °F 29.80 in WNW 2.3 mph 2.3 mph 41 % 0.00 in
15:45 83.7 °F 56.8 °F 29.79 in NNW 1.2 mph 1.2 mph 40 % 0.00 in
15:50 84.0 °F 57.8 °F 29.79 in NW 1.2 mph   41 % 0.00 in
15:55 83.8 °F 56.9 °F 29.79 in NW 2.3 mph 2.3 mph 40 % 0.00 in
16:00 83.5 °F 56.6 °F 29.79 in North 3.5 mph 3.5 mph 40 % 0.00 in
16:05 83.4 °F 56.5 °F 29.79 in NNW 1.2 mph 1.2 mph 40 % 0.00 in
16:10 83.4 °F 56.5 °F 29.79 in NW 2.3 mph 2.3 mph 40 % 0.00 in
16:16 83.1 °F 57.0 °F 29.79 in WNW 2.3 mph   41 % 0.00 in
16:21 83.2 °F 57.1 °F 29.79 in West 1.2 mph 1.2 mph 41 % 0.00 in
16:26 83.2 °F 57.1 °F 29.79 in NW 3.5 mph 3.5 mph 41 % 0.00 in
16:31 83.1 °F 57.0 °F 29.79 in Calm     41 % 0.00 in
16:36 83.3 °F 57.1 °F 29.79 in NW 2.3 mph 2.3 mph 41 % 0.00 in
16:41 83.3 °F 57.1 °F 29.78 in NW 3.5 mph 3.5 mph 41 % 0.00 in
16:46 83.2 °F 57.1 °F 29.78 in NW 2.3 mph 2.3 mph 41 % 0.00 in
16:51 83.4 °F 57.2 °F 29.78 in NW 3.5 mph 3.5 mph 41 % 0.00 in
16:56 83.1 °F 57.0 °F 29.78 in NW 2.3 mph 2.3 mph 41 % 0.00 in
17:01 83.0 °F 56.9 °F 29.78 in NW 2.3 mph 2.3 mph 41 % 0.00 in
17:06 82.9 °F 56.8 °F 29.78 in NNW 2.3 mph 2.3 mph 41 % 0.00 in
17:11 82.8 °F 56.7 °F 29.78 in NW 3.5 mph 3.5 mph 41 % 0.00 in
17:16 82.8 °F 57.4 °F 29.78 in WSW 3.5 mph 3.5 mph 42 % 0.00 in
17:21 82.7 °F 56.6 °F 29.78 in WNW 2.3 mph 2.3 mph 41 % 0.00 in
17:26 82.5 °F 57.7 °F 29.78 in WNW 2.3 mph 2.3 mph 43 % 0.00 in
17:31 82.3 °F 56.2 °F 29.78 in NNW 3.5 mph 3.5 mph 41 % 0.00 in
17:36 82.4 °F 57.7 °F 29.79 in NW 1.2 mph 1.2 mph 43 % 0.00 in
17:41 82.4 °F 57.0 °F 29.79 in WNW 2.3 mph 2.3 mph 42 % 0.00 in
17:46 82.4 °F 57.0 °F 29.79 in NW 1.2 mph   42 % 0.00 in
17:51 82.0 °F 57.3 °F 29.79 in WNW 1.2 mph 1.2 mph 43 % 0.00 in
17:56 81.6 °F 56.9 °F 29.79 in WNW 2.3 mph 2.3 mph 43 % 0.00 in
18:01 81.2 °F 56.6 °F 29.79 in NW 2.3 mph 2.3 mph 43 % 0.00 in
18:06 80.9 °F 56.9 °F 29.79 in WNW 1.2 mph 1.2 mph 44 % 0.00 in
18:11 80.6 °F 56.7 °F 29.79 in NW 2.3 mph 2.3 mph 44 % 0.00 in
18:16 80.4 °F 56.5 °F 29.79 in NW 1.2 mph 1.2 mph 44 % 0.00 in
18:21 80.1 °F 56.2 °F 29.79 in NNW 2.3 mph 2.3 mph 44 % 0.00 in
18:27 79.9 °F 57.3 °F 29.79 in NW 1.2 mph 1.2 mph 46 % 0.00 in
18:32 79.6 °F 56.4 °F 29.79 in NW 1.2 mph 1.2 mph 45 % 0.00 in
18:36 79.4 °F 56.8 °F 29.79 in Calm     46 % 0.00 in
18:41 79.1 °F 57.1 °F 29.79 in NW 1.2 mph   47 % 0.00 in
18:47 78.8 °F 56.9 °F 29.79 in Calm     47 % 0.00 in
18:57 78.1 °F 56.8 °F 29.79 in Calm     48 % 0.00 in
19:02 77.8 °F 57.1 °F 29.79 in Calm     49 % 0.00 in
19:07 77.4 °F 57.3 °F 29.79 in Calm     50 % 0.00 in
19:12 77.1 °F 57.0 °F 29.79 in Calm     50 % 0.00 in
19:17 76.9 °F 56.8 °F 29.79 in Calm     50 % 0.00 in
19:22 76.7 °F 57.2 °F 29.79 in Calm     51 % 0.00 in
19:27 76.5 °F 56.5 °F 29.79 in Calm     50 % 0.00 in
19:32 76.3 °F 57.4 °F 29.79 in Calm     52 % 0.00 in
19:37 76.2 °F 56.7 °F 29.79 in Calm     51 % 0.00 in
19:42 76.0 °F 57.6 °F 29.79 in Calm     53 % 0.00 in
19:47 75.7 °F 56.8 °F 29.79 in Calm     52 % 0.00 in
19:48 75.7 °F 57.4 °F 29.79 in Calm     53 % 0.00 in
19:53 75.3 °F 57.0 °F 29.79 in Calm     53 % 0.00 in
19:58 74.8 °F 57.5 °F 29.79 in Calm     55 % 0.00 in
20:03 74.5 °F 57.8 °F 29.79 in Calm     56 % 0.00 in
20:08 74.2 °F 57.5 °F 29.79 in Calm     56 % 0.00 in
20:13 73.8 °F 57.6 °F 29.79 in Calm     57 % 0.00 in
20:18 73.3 °F 58.1 °F 29.80 in Calm     59 % 0.00 in
20:21 73.1 °F 57.9 °F 29.80 in Calm     59 % 0.00 in
20:26 72.7 °F 58.5 °F 29.79 in Calm     61 % 0.00 in
20:31 72.3 °F 58.1 °F 29.80 in Calm     61 % 0.00 in
20:36 72.0 °F 58.3 °F 29.80 in Calm     62 % 0.00 in
20:41 71.7 °F 58.4 °F 29.80 in Calm     63 % 0.00 in
20:46 71.6 °F 58.3 °F 29.80 in Calm     63 % 0.00 in
20:51 71.5 °F 58.2 °F 29.80 in Calm     63 % 0.00 in
20:56 71.5 °F 58.2 °F 29.80 in Calm     63 % 0.00 in
21:01 71.6 °F 57.9 °F 29.80 in Calm     62 % 0.00 in
21:11 71.1 °F 58.3 °F 29.81 in Calm     64 % 0.00 in
21:16 70.8 °F 58.4 °F 29.81 in Calm     65 % 0.00 in
21:21 70.4 °F 59.3 °F 29.81 in Calm     68 % 0.00 in
21:26 70.3 °F 58.4 °F 29.81 in Calm     66 % 0.00 in
21:31 70.2 °F 57.9 °F 29.81 in Calm     65 % 0.00 in
21:36 70.0 °F 58.1 °F 29.81 in Calm     66 % 0.00 in
21:41 69.8 °F 58.8 °F 29.81 in Calm     68 % 0.00 in
21:46 69.4 °F 58.8 °F 29.81 in Calm     69 % 0.00 in
21:51 68.9 °F 58.3 °F 29.81 in Calm     69 % 0.00 in
21:56 68.6 °F 58.8 °F 29.81 in Calm     71 % 0.00 in
22:01 68.3 °F 58.9 °F 29.82 in Calm     72 % 0.00 in
22:06 68.1 °F 58.7 °F 29.82 in Calm     72 % 0.00 in
22:11 67.9 °F 58.5 °F 29.82 in Calm     72 % 0.00 in
22:16 67.9 °F 57.8 °F 29.82 in Calm     70 % 0.00 in
22:21 68.2 °F 57.6 °F 29.82 in Calm     69 % 0.00 in
22:26 68.3 °F 58.1 °F 29.82 in Calm     70 % 0.00 in
22:31 68.3 °F 56.5 °F 29.82 in Calm     66 % 0.00 in
22:36 68.6 °F 55.1 °F 29.82 in Calm     62 % 0.00 in
22:41 69.0 °F 55.0 °F 29.82 in Calm     61 % 0.00 in
22:46 69.2 °F 55.2 °F 29.82 in Calm     61 % 0.00 in
22:51 69.3 °F 54.8 °F 29.82 in NNW 1.2 mph   60 % 0.00 in
22:56 69.3 °F 54.8 °F 29.82 in Calm     60 % 0.00 in
23:01 69.3 °F 54.8 °F 29.82 in Calm     60 % 0.00 in
23:06 69.2 °F 54.3 °F 29.82 in Calm     59 % 0.00 in
23:11 69.1 °F 54.2 °F 29.82 in Calm     59 % 0.00 in
23:16 69.2 °F 54.7 °F 29.83 in Calm     60 % 0.00 in
23:22 69.0 °F 54.5 °F 29.83 in Calm     60 % 0.00 in
23:27 68.8 °F 54.3 °F 29.83 in Calm     60 % 0.00 in
23:32 68.6 °F 54.6 °F 29.83 in Calm     61 % 0.00 in
23:37 68.1 °F 55.0 °F 29.83 in Calm     63 % 0.00 in
23:42 67.7 °F 55.1 °F 29.83 in Calm     64 % 0.00 in
23:47 67.3 °F 55.5 °F 29.83 in Calm     66 % 0.00 in
23:52 66.9 °F 55.6 °F 29.83 in Calm     67 % 0.00 in
23:57 66.5 °F 56.0 °F 29.83 in Calm     69 % 0.00 in
Park Place, Exeter, Tulare County, California, USA
Compliments of Weather Underground - 2.75 mb